EA3CH Weather Reports


Display with metric or nautical units.
time (UTC)temp
F
wind
direction
speed
MPH
gust
MPH
rain 1hr
in
rain 24hr
in
rain mn
in
humidity
%
barometer
mb
20260507140006 63 240 3.0 7.0 0.00 0.00 0.00 69 1012.4
20260507130006 63 242 2.0 6.0 0.00 0.00 0.00 66 1012.8
20260507121506 64 79 1.0 5.0 0.00 0.00 0.00 55 1013.0
20260507120006 64 264 1.0 4.0 0.00 0.00 0.00 57 1013.0
20260507114506 63 74 1.0 4.0 0.00 0.00 0.00 62 1013.1
20260507113006 62 68 1.0 6.0 0.00 0.00 0.00 58 1013.3
20260507111507 62 76 1.0 4.0 0.00 0.00 0.00 60 1013.4
20260507100006 57 90 2.0 4.0 0.00 0.00 0.00 89 1013.9
20260507094505 56 74 1.0 5.0 0.00 0.00 0.00 89 1014.0
20260507090006 55 76 0.0 2.0 0.00 0.00 0.00 88 1013.8
20260507083005 55 267 0.0 3.0 0.00 0.00 0.00 87 1013.8
20260507081506 54 254 1.0 5.0 0.00 0.00 0.00 87 1013.9
20260507080005 53 262 1.0 4.0 0.00 0.00 0.00 87 1014.0
20260507074506 52 259 2.0 5.0 0.00 0.00 0.00 87 1014.0
20260507073006 52 256 1.0 5.0 0.00 0.00 0.00 87 1014.1
20260507071506 52 265 0.0 2.0 0.00 0.00 0.00 87 1014.0
20260507070010 54 0 0.0 0.0 0.00 0.00 0.00 87 1013.8
20260507064506 53 0 0.0 0.0 0.00 0.00 0.00 87 1013.6
20260507063005 51 0 0.0 0.0 0.00 0.00 0.00 87 1013.5
20260507060006 46 0 0.0 0.0 0.00 0.00 0.00 88 1013.5
20260507051506 45 0 0.0 0.0 0.00 0.00 0.00 88 1013.1
20260507050006 45 0 0.0 0.0 0.00 0.00 0.00 88 1013.1
20260507043005 44 0 0.0 0.0 0.00 0.00 0.00 89 1013.1
20260507040005 44 0 0.0 0.0 0.00 0.00 0.00 89 1013.0
20260507034506 44 0 0.0 0.0 0.00 0.00 0.00 89 1013.0
20260507030005 45 0 0.0 0.0 0.00 0.00 0.00 89 1013.1
20260507024505 45 0 0.0 0.0 0.00 0.00 0.00 90 1013.1
20260507021504 45 0 0.0 0.0 0.00 0.00 0.00 90 1013.1
20260507020005 46 0 0.0 0.0 0.00 0.00 0.00 90 1013.3
20260507014505 47 0 0.0 0.0 0.00 0.00 0.00 90 1013.4
20260506224505 51 267 0.0 2.0 0.00 0.01 0.00 89 1013.9
20260506214507 52 251 1.0 6.0 0.00 0.02 0.01 89 1013.7
20260506211505 53 272 0.0 3.0 0.00 0.03 0.01 89 1013.6
20260506210005 52 262 1.0 4.0 0.00 0.12 0.01 89 1013.5
20260506204505 52 241 1.0 3.0 0.00 0.12 0.01 89 1013.4
20260506201505 52 249 1.0 4.0 0.00 0.12 0.01 88 1013.0
20260506194505 52 240 1.0 4.0 0.00 0.12 0.01 86 1012.5
20260506193005 53 258 1.0 4.0 0.00 0.12 0.01 83 1012.3
20260506183005 55 247 1.0 3.0 0.00 0.15 0.01 74 1011.8
20260506181504 55 251 2.0 5.0 0.00 0.17 0.01 72 1011.5
20260506180005 57 248 2.0 7.0 0.00 0.17 0.01 71 1011.3
20260506174505 58 255 1.0 4.0 0.00 0.18 0.01 69 1011.2
20260506173005 59 246 1.0 5.0 0.00 0.18 0.01 68 1011.0
20260506150006 62 105 2.0 6.0 0.00 0.24 0.01 53 1010.8
20260506144506 64 84 2.0 7.0 0.00 0.37 0.01 50 1010.7
20260506143006 64 84 2.0 6.0 0.00 0.38 0.01 50 1010.9